Location: Katowice
(50.2611°N, 19.0242°E)
Time: 17:10:13
(UTC+02:00)

Transit 4A - All Passes

Search period start: 17 July 2019 00:00
Search period end: 27 July 2019 00:00
Orbit: 862 x 982 km, 66.8° (Epoch: 16 July)

Date Brightness Start Highest point End Pass type
(mag) Time Alt. Az. Time Alt. Az. Time Alt. Az.
17 Jul - 02:35:06 10° S 02:40:48 35° ESE 02:46:32 10° NE visible
17 Jul - 04:20:37 10° SW 04:26:56 60° NW 04:33:19 10° NNE daylight
17 Jul - 06:09:36 10° WNW 06:14:40 24° NNW 06:19:43 10° NNE daylight
17 Jul - 07:59:11 10° NW 08:03:27 18° N 08:07:41 10° NE daylight
17 Jul - 09:46:27 10° NNW 09:52:00 30° NNE 09:57:26 10° E daylight
17 Jul - 11:32:48 10° NW 11:39:13 90° ENE 11:45:25 10° SE daylight
17 Jul - 13:20:20 10° WNW 13:24:47 20° WSW 13:29:08 10° SSW daylight
18 Jul - 02:43:53 10° S 02:49:58 49° ESE 02:56:07 10° NE visible
18 Jul - 04:30:19 10° WSW 04:36:28 47° NW 04:42:40 10° NNE daylight
18 Jul - 06:19:45 10° WNW 06:24:29 21° NNW 06:29:12 10° NNE daylight
18 Jul - 08:08:56 10° NNW 08:13:20 19° N 08:17:43 10° NE daylight
18 Jul - 09:55:49 10° NNW 10:01:40 36° NE 10:07:23 10° ESE daylight
18 Jul - 11:42:13 10° NW 11:48:33 68° WSW 11:54:39 10° SSE daylight
18 Jul - 13:30:43 10° WNW 13:33:45 14° W 13:36:44 10° SW daylight
19 Jul - 01:10:52 10° SE 01:13:59 14° E 01:17:07 10° ENE visible
19 Jul - 02:52:54 10° SSW 02:59:13 67° ESE 03:05:36 10° NE visible
19 Jul - 04:40:09 10° WSW 04:46:04 37° NW 04:52:00 10° NNE daylight
19 Jul - 06:29:53 10° NW 06:34:21 19° NNW 06:38:48 10° NNE daylight
19 Jul - 08:18:32 10° NNW 08:23:13 20° NNE 08:27:50 10° ENE daylight
19 Jul - 10:05:09 10° NNW 10:11:17 45° NE 10:17:13 10° ESE daylight
19 Jul - 11:51:43 10° NW 11:57:47 50° WSW 12:03:40 10° S daylight
20 Jul - 01:18:28 10° SSE 01:22:57 21° ESE 01:27:29 10° ENE visible
20 Jul - 03:02:08 10° SW 03:08:32 89° SE 03:15:01 10° NE visible
20 Jul - 04:50:07 10° W 04:55:44 31° NNW 05:01:21 10° NNE daylight
20 Jul - 06:39:58 10° NW 06:44:15 18° N 06:48:30 10° NE daylight
20 Jul - 08:28:03 10° NNW 08:33:02 23° NNE 08:37:57 10° ENE daylight
20 Jul - 10:14:30 10° NNW 10:20:48 58° NE 10:26:55 10° SE daylight
20 Jul - 12:01:18 10° NW 12:06:58 36° WSW 12:12:28 10° S daylight
21 Jul - 01:26:41 10° SSE 01:32:00 29° ESE 01:37:23 10° NE visible
21 Jul - 03:11:33 10° SW 03:17:56 71° NW 03:24:24 10° NE visible
21 Jul - 05:00:11 10° W 05:05:28 26° NNW 05:10:45 10° NNE daylight
21 Jul - 06:49:56 10° NW 06:54:09 18° N 06:58:21 10° NE daylight
21 Jul - 08:37:30 10° NNW 08:42:49 27° NNE 08:48:03 10° E daylight
21 Jul - 10:23:52 10° NW 10:30:16 76° NE 10:36:27 10° SE daylight
21 Jul - 12:11:02 10° NW 12:16:03 25° WSW 12:20:57 10° SSW daylight
22 Jul - 01:35:17 10° S 01:41:08 40° ESE 01:47:03 10° NE visible
22 Jul - 03:21:09 10° WSW 03:27:25 55° NW 03:33:44 10° NNE visible
22 Jul - 05:10:18 10° WNW 05:15:15 22° NNW 05:20:11 10° NNE daylight
22 Jul - 06:59:46 10° NW 07:04:04 18° N 07:08:19 10° NE daylight
22 Jul - 08:46:53 10° NNW 08:52:33 32° NNE 08:58:03 10° E daylight
22 Jul - 10:33:15 10° NW 10:39:38 82° SW 10:45:48 10° SSE daylight
22 Jul - 12:21:04 10° WNW 12:25:04 18° WSW 12:28:59 10° SW daylight
23 Jul - 00:04:01 10° ESE 00:05:20 11° E 00:06:39 10° E visible
23 Jul - 01:44:09 10° SSW 01:50:20 55° ESE 01:56:36 10° NE visible
23 Jul - 03:30:54 10° WSW 03:36:58 43° NW 03:43:05 10° NNE visible
23 Jul - 05:20:28 10° WNW 05:25:06 20° NNW 05:29:42 10° NNE daylight
23 Jul - 07:09:28 10° NNW 07:13:57 19° NNE 07:18:23 10° ENE daylight
23 Jul - 08:56:15 10° NNW 09:02:11 39° NE 09:07:58 10° ESE daylight
23 Jul - 10:42:41 10° NW 10:48:56 61° WSW 10:54:58 10° SSE daylight
23 Jul - 12:31:52 10° W 12:34:01 12° W 12:36:07 10° WSW daylight
24 Jul - 00:10:32 10° SE 00:14:15 16° ESE 00:18:00 10° ENE visible
24 Jul - 01:53:15 10° SSW 01:59:37 75° ESE 02:06:03 10° NE visible
24 Jul - 03:40:47 10° W 03:46:35 35° NW 03:52:24 10° NNE visible
24 Jul - 05:30:35 10° NW 05:34:58 19° N 05:39:19 10° NE daylight
24 Jul - 07:19:02 10° NNW 07:23:49 21° NNE 07:28:30 10° ENE daylight
24 Jul - 09:05:35 10° NNW 09:11:46 49° NE 09:17:46 10° ESE daylight
24 Jul - 10:52:13 10° NW 10:58:09 44° WSW 11:03:54 10° S daylight
25 Jul - 00:18:24 10° SSE 00:23:16 23° ESE 00:28:09 10° ENE visible
25 Jul - 02:02:33 10° SW 02:08:58 84° NW 02:15:27 10° NE visible
25 Jul - 03:50:47 10° W 03:56:17 29° NNW 04:01:47 10° NNE visible
25 Jul - 05:40:38 10° NW 05:44:52 18° N 05:49:04 10° NE daylight
25 Jul - 07:28:31 10° NNW 07:33:37 24° NNE 07:38:38 10° ENE daylight
25 Jul - 09:14:56 10° NW 09:21:16 64° NE 09:27:23 10° SE daylight
25 Jul - 11:01:51 10° NW 11:07:17 31° WSW 11:12:35 10° S daylight
26 Jul - 00:26:47 10° S 00:32:20 33° ESE 00:37:57 10° NE visible
26 Jul - 02:12:02 10° SW 02:18:24 64° NW 02:24:49 10° NE visible
26 Jul - 04:00:53 10° WNW 04:06:03 24° NNW 04:11:11 10° NNE visible
26 Jul - 05:50:33 10° NW 05:54:47 18° N 05:58:58 10° NE daylight
26 Jul - 07:37:57 10° NNW 07:43:23 28° NNE 07:48:42 10° E daylight
26 Jul - 09:24:18 10° NW 09:30:42 84° NE 09:36:52 10° SE daylight
26 Jul - 11:11:40 10° WNW 11:16:21 22° WSW 11:20:55 10° SSW daylight
